| time (UTC) | temp C | wind direction | speed KPH | gust KPH | rain 1hr cm | rain 24hr cm | rain mn cm | humidity % | barometer mb |
| 20260505102002 | 16 | 133 | 4.8 | 11.3 | 0.00 | 0.46 | 0.00 | 67 | 1009.3 |
| 20260505101002 | 16 | 147 | 6.4 | 14.5 | 0.00 | 0.46 | 0.00 | 67 | 1009.2 |
| 20260505100002 | 16 | 145 | 8.0 | 12.9 | 0.00 | 0.48 | 0.00 | 66 | 1009.0 |
| 20260505095003 | 16 | 135 | 8.0 | 19.3 | 0.00 | 0.61 | 0.00 | 66 | 1009.0 |
| 20260505094046 | 16 | 141 | 4.8 | 16.1 | 0.00 | 0.61 | 0.00 | 65 | 1008.9 |
| 20260505093003 | 16 | 135 | 6.4 | 17.7 | 0.00 | 0.64 | 0.00 | 65 | 1009.0 |
| 20260505092002 | 16 | 112 | 6.4 | 16.1 | 0.00 | 0.64 | 0.00 | 65 | 1008.9 |
| 20260505091002 | 16 | 144 | 6.4 | 22.5 | 0.00 | 0.64 | 0.00 | 65 | 1008.8 |
| 20260505090023 | 16 | 130 | 6.4 | 16.1 | 0.00 | 0.64 | 0.00 | 66 | 1008.7 |
| 20260505085023 | 16 | 138 | 11.3 | 25.7 | 0.00 | 0.64 | 0.00 | 66 | 1008.6 |
| 20260505084002 | 16 | 122 | 8.0 | 20.9 | 0.00 | 0.64 | 0.00 | 66 | 1008.6 |
| 20260505083002 | 16 | 139 | 9.7 | 22.5 | 0.00 | 0.64 | 0.00 | 66 | 1008.6 |
| 20260505082002 | 16 | 126 | 9.7 | 17.7 | 0.00 | 0.64 | 0.00 | 66 | 1008.6 |
| 20260505081001 | 16 | 102 | 9.7 | 16.1 | 0.00 | 0.64 | 0.00 | 66 | 1008.6 |
| 20260505080024 | 16 | 115 | 6.4 | 14.5 | 0.00 | 0.64 | 0.00 | 66 | 1008.5 |
| 20260505075002 | 17 | 117 | 9.7 | 19.3 | 0.00 | 0.64 | 0.00 | 66 | 1008.4 |
| 20260505074003 | 16 | 122 | 9.7 | 20.9 | 0.00 | 0.64 | 0.00 | 66 | 1008.4 |
| 20260505073003 | 16 | 106 | 9.7 | 20.9 | 0.00 | 0.64 | 0.00 | 67 | 1008.3 |
| 20260505072002 | 17 | 103 | 9.7 | 20.9 | 0.00 | 0.64 | 0.00 | 66 | 1008.4 |
| 20260505071003 | 17 | 118 | 9.7 | 16.1 | 0.00 | 0.64 | 0.00 | 66 | 1008.4 |
| 20260505070002 | 17 | 129 | 8.0 | 14.5 | 0.00 | 0.64 | 0.00 | 66 | 1008.5 |
| 20260505065025 | 17 | 119 | 8.0 | 14.5 | 0.00 | 0.66 | 0.00 | 66 | 1008.5 |
| 20260505064002 | 17 | 110 | 6.4 | 14.5 | 0.00 | 0.66 | 0.00 | 65 | 1008.5 |
| 20260505063002 | 17 | 121 | 8.0 | 14.5 | 0.00 | 0.66 | 0.00 | 65 | 1008.5 |
| 20260505062002 | 17 | 94 | 8.0 | 17.7 | 0.00 | 0.66 | 0.00 | 65 | 1008.5 |
| 20260505061002 | 17 | 127 | 6.4 | 19.3 | 0.00 | 0.66 | 0.00 | 64 | 1008.5 |
| 20260505060003 | 17 | 107 | 8.0 | 14.5 | 0.00 | 0.66 | 0.00 | 64 | 1008.6 |
| 20260505055023 | 18 | 120 | 6.4 | 17.7 | 0.00 | 0.66 | 0.00 | 63 | 1008.8 |
| 20260505054002 | 18 | 108 | 6.4 | 12.9 | 0.00 | 0.66 | 0.00 | 62 | 1008.8 |
| 20260505053023 | 18 | 106 | 6.4 | 12.9 | 0.00 | 0.66 | 0.00 | 63 | 1008.8 |
| 20260505052002 | 18 | 115 | 4.8 | 12.9 | 0.00 | 0.66 | 0.00 | 62 | 1008.8 |
| 20260505051002 | 18 | 133 | 4.8 | 14.5 | 0.00 | 0.66 | 0.00 | 61 | 1008.8 |
| 20260505041002 | 20 | 129 | 8.0 | 17.7 | 0.00 | 0.66 | 0.00 | 59 | 1008.6 |
| 20260505040002 | 20 | 132 | 8.0 | 14.5 | 0.00 | 0.66 | 0.66 | 58 | 1008.6 |
| 20260505035003 | 20 | 134 | 6.4 | 14.5 | 0.00 | 0.66 | 0.66 | 59 | 1008.4 |
| 20260505034002 | 20 | 136 | 4.8 | 12.9 | 0.00 | 0.66 | 0.66 | 58 | 1008.3 |
| 20260505033003 | 20 | 133 | 4.8 | 16.1 | 0.00 | 0.66 | 0.66 | 58 | 1008.2 |
| 20260505032002 | 20 | 132 | 4.8 | 16.1 | 0.00 | 0.66 | 0.66 | 59 | 1008.1 |
| 20260505031002 | 20 | 122 | 4.8 | 12.9 | 0.00 | 0.66 | 0.66 | 59 | 1008.0 |
| 20260505030003 | 20 | 130 | 8.0 | 16.1 | 0.00 | 0.66 | 0.66 | 59 | 1007.9 |
| 20260505025002 | 20 | 105 | 8.0 | 16.1 | 0.00 | 0.66 | 0.66 | 59 | 1007.9 |
| 20260505024003 | 20 | 128 | 8.0 | 14.5 | 0.00 | 0.66 | 0.66 | 58 | 1007.7 |
| 20260505023002 | 20 | 125 | 6.4 | 12.9 | 0.00 | 0.66 | 0.66 | 58 | 1007.6 |
| 20260505022003 | 20 | 124 | 6.4 | 12.9 | 0.00 | 0.66 | 0.66 | 58 | 1007.5 |
| 20260505021001 | 20 | 127 | 8.0 | 16.1 | 0.00 | 0.66 | 0.66 | 57 | 1007.4 |
| 20260505020003 | 20 | 102 | 4.8 | 14.5 | 0.00 | 0.66 | 0.66 | 58 | 1007.2 |
| 20260505015002 | 20 | 122 | 6.4 | 11.3 | 0.00 | 0.66 | 0.66 | 57 | 1007.2 |
| 20260505014002 | 20 | 93 | 8.0 | 12.9 | 0.00 | 0.66 | 0.66 | 56 | 1007.3 |
| 20260505013002 | 20 | 104 | 6.4 | 11.3 | 0.00 | 0.66 | 0.66 | 56 | 1007.2 |
| 20260505012002 | 21 | 106 | 3.2 | 8.0 | 0.00 | 0.66 | 0.66 | 56 | 1007.2 |
| 20260505011002 | 21 | 104 | 4.8 | 12.9 | 0.00 | 0.66 | 0.66 | 56 | 1007.1 |
| 20260505010002 | 21 | 117 | 6.4 | 12.9 | 0.00 | 0.66 | 0.66 | 57 | 1007.1 |
| 20260505005023 | 21 | 111 | 4.8 | 14.5 | 0.00 | 0.66 | 0.66 | 57 | 1007.2 |
| 20260505004003 | 21 | 73 | 6.4 | 12.9 | 0.00 | 0.66 | 0.66 | 56 | 1007.1 |
| 20260505003003 | 21 | 125 | 3.2 | 9.7 | 0.00 | 0.66 | 0.66 | 55 | 1007.3 |
| 20260505002002 | 22 | 143 | 3.2 | 11.3 | 0.00 | 0.66 | 0.66 | 53 | 1007.3 |
| 20260505000046 | 22 | 138 | 6.4 | 17.7 | 0.00 | 0.66 | 0.66 | 52 | 1007.5 |
| 20260504235002 | 23 | 161 | 6.4 | 24.1 | 0.00 | 0.66 | 0.66 | 52 | 1007.6 |
| 20260504234003 | 23 | 150 | 4.8 | 19.3 | 0.00 | 0.66 | 0.66 | 52 | 1007.7 |
| 20260504233003 | 23 | 160 | 8.0 | 17.7 | 0.00 | 0.66 | 0.66 | 51 | 1007.8 |
| 20260504232003 | 23 | 128 | 4.8 | 20.9 | 0.00 | 0.66 | 0.66 | 51 | 1007.8 |
| 20260504231003 | 23 | 138 | 8.0 | 16.1 | 0.00 | 0.66 | 0.66 | 49 | 1007.9 |
| 20260504230003 | 23 | 137 | 8.0 | 24.1 | 0.00 | 0.66 | 0.66 | 48 | 1008.0 |
| 20260504225023 | 24 | 159 | 11.3 | 17.7 | 0.00 | 0.66 | 0.66 | 47 | 1008.0 |
| 20260504224002 | 24 | 173 | 4.8 | 22.5 | 0.00 | 0.66 | 0.66 | 49 | 1008.1 |
| 20260504223002 | 25 | 147 | 8.0 | 16.1 | 0.00 | 0.66 | 0.66 | 48 | 1008.0 |
| 20260504222003 | 24 | 156 | 6.4 | 20.9 | 0.00 | 0.66 | 0.66 | 50 | 1008.1 |
| 20260504221002 | 24 | 211 | 9.7 | 24.1 | 0.00 | 0.66 | 0.66 | 48 | 1008.1 |
| 20260504220002 | 25 | 196 | 9.7 | 24.1 | 0.00 | 0.66 | 0.66 | 47 | 1008.3 |
| 20260504215003 | 24 | 164 | 6.4 | 25.7 | 0.00 | 0.66 | 0.66 | 49 | 1008.3 |
| 20260504214002 | 24 | 193 | 8.0 | 25.7 | 0.00 | 0.66 | 0.66 | 49 | 1008.3 |
| 20260504213002 | 25 | 220 | 11.3 | 27.4 | 0.00 | 0.66 | 0.66 | 46 | 1008.3 |
| 20260504212024 | 25 | 219 | 4.8 | 12.9 | 0.00 | 0.66 | 0.66 | 46 | 1008.3 |
| 20260504211002 | 25 | 239 | 3.2 | 19.3 | 0.00 | 0.66 | 0.66 | 50 | 1008.3 |
| 20260504210003 | 24 | 218 | 9.7 | 29.0 | 0.00 | 0.66 | 0.66 | 47 | 1008.4 |
| 20260504205002 | 25 | 158 | 12.9 | 29.0 | 0.00 | 0.66 | 0.66 | 50 | 1008.4 |
| 20260504204023 | 24 | 181 | 4.8 | 17.7 | 0.00 | 0.66 | 0.66 | 53 | 1008.5 |
| 20260504203002 | 24 | 163 | 6.4 | 25.7 | 0.00 | 0.66 | 0.66 | 50 | 1008.5 |
| 20260504202002 | 25 | 221 | 4.8 | 12.9 | 0.00 | 0.66 | 0.66 | 52 | 1008.7 |
| 20260504201002 | 24 | 227 | 6.4 | 16.1 | 0.00 | 0.66 | 0.66 | 53 | 1008.8 |
| 20260504200002 | 24 | 182 | 9.7 | 20.9 | 0.00 | 0.66 | 0.66 | 51 | 1009.1 |
| 20260504195003 | 24 | 211 | 6.4 | 17.7 | 0.00 | 0.66 | 0.66 | 51 | 1009.2 |
| 20260504194002 | 23 | 210 | 6.4 | 27.4 | 0.00 | 0.66 | 0.66 | 53 | 1009.3 |
| 20260504193003 | 23 | 155 | 11.3 | 25.7 | 0.00 | 0.66 | 0.66 | 54 | 1009.4 |
| 20260504192002 | 23 | 165 | 9.7 | 27.4 | 0.00 | 0.66 | 0.66 | 55 | 1009.7 |
| 20260504191003 | 23 | 152 | 14.5 | 24.1 | 0.00 | 0.66 | 0.66 | 56 | 1009.8 |
| 20260504190003 | 23 | 150 | 9.7 | 25.7 | 0.00 | 0.66 | 0.66 | 56 | 1009.6 |
| 20260504185002 | 23 | 225 | 4.8 | 25.7 | 0.00 | 0.66 | 0.66 | 57 | 1009.7 |
| 20260504184002 | 22 | 166 | 6.4 | 33.8 | 0.00 | 0.66 | 0.66 | 59 | 1009.7 |
| 20260504183002 | 22 | 149 | 12.9 | 27.4 | 0.00 | 0.66 | 0.66 | 57 | 1009.8 |
| 20260504182002 | 22 | 172 | 11.3 | 22.5 | 0.00 | 0.66 | 0.66 | 57 | 1009.9 |
| 20260504181003 | 22 | 283 | 6.4 | 25.7 | 0.00 | 0.66 | 0.66 | 61 | 1009.8 |
| 20260504180003 | 21 | 342 | 16.1 | 33.8 | 0.00 | 0.66 | 0.66 | 58 | 1009.8 |
| 20260504175002 | 21 | 342 | 14.5 | 27.4 | 0.00 | 0.66 | 0.66 | 62 | 1009.9 |
| 20260504174003 | 21 | 141 | 14.5 | 32.2 | 0.00 | 0.66 | 0.66 | 61 | 1009.9 |
| 20260504173002 | 21 | 342 | 14.5 | 25.7 | 0.00 | 0.66 | 0.66 | 62 | 1010.0 |
| 20260504172002 | 21 | 342 | 12.9 | 24.1 | 0.00 | 0.66 | 0.66 | 63 | 1010.1 |
| 20260504171003 | 20 | 342 | 12.9 | 29.0 | 0.00 | 0.66 | 0.66 | 62 | 1010.3 |
| 20260504151024 | 14 | 342 | 11.3 | 19.3 | 0.00 | 0.66 | 0.66 | 77 | 1011.9 |
| 20260504141003 | 12 | 342 | 4.8 | 11.3 | 0.00 | 0.66 | 0.66 | 85 | 1012.9 |